[[{"header":{"parameterUnit":"m.s-1","parameterCategory":2,"la1":30.2991,"la2":30.254,"lo1":-89.0895,"lo2":-89.0444,"dy":0.0017,"dx":0.0017,"nx":28,"ny":28,"refTime":"2023-06-27T21:00:00:Z","depth":"0","parameterNumber":2,"parameterNumberName":"U-component_of_CURRENTS"},"data":[0,0,0,0,0,0,0,0,0,0,0,0,0,0,0,0,0,0,0,0,0,0,0,0,0,0,0,0,0,0,0,0,0,0,0,0,0,0,0,0,0,0,0,0,0,0,0,0,0,0,0,0,0,0,0,0,0,0,0.2624,0.2624,0,0.269,0.2691,0.2691,0.2669,0.2668,0.2667,0.2665,0.2758,0.2761,0.2765,0,0,0,0,0,0,0,0,0,0,0,0,0,0.2533,0.2534,0.2624,0.2624,0.2625,0.269,0.2691,0.2691,0.2669,0.2668,0.2666,0.2665,0.2756,0.2761,0.2765,0,0,0,0,0,0,0,0,0,0,0,0,0,0.2582,0.2535,0.2623,0.2623,0.2624,0.269,0.2691,0.2692,0.267,0.2668,0.2666,0.2664,0.2755,0.276,0.2766,0.2839,0,0,0.2783,0.2785,0,0,0,0,0,0,0,0,0.2579,0.2585,0.2622,0.2623,0.2624,0.2671,0.2693,0.2743,0.267,0.2651,0.2665,0.2663,0.2733,0.2741,0.2755,0.2843,0.2847,0.2783,0.2786,0.2789,0.279,0,0,0,0,0,0,0,0.2575,0.2582,0.2648,0.2624,0.2625,0.2639,0.2643,0.2702,0.2702,0.2652,0.2651,0.2662,0.2734,0.275,0.2757,0.2849,0.2783,0.2788,0.2791,0.2793,0.3041,0.3045,0,0,0,0,0,0,0.257,0.2579,0.2646,0.265,0.2598,0.2642,0.2647,0.2657,0.27,0.2705,0.2663,0.266,0.2741,0.2751,0.276,0.2889,0.2789,0.2794,0.2797,0.3038,0.3042,0.3046,0,0,0,0,0,0,0.2568,0.2575,0.2644,0.2617,0.2627,0.2645,0.2657,0.2659,0.2676,0.2709,0.2713,0.2679,0.274,0.2753,0.2827,0.2891,0.2796,0.2801,0.3034,0.3039,0.3044,0.3122,0,0,0,0,0,0,0.2565,0.2574,0.2583,0.2617,0.2628,0.2691,0.2659,0.2662,0.2686,0.2683,0.2725,0.273,0.2739,0.2819,0.2832,0.2896,0.2806,0.303,0.3037,0.3042,0.3115,0.3129,0.314,0,0,0,0,0,0.2561,0.2587,0.2583,0.2592,0.2639,0.2693,0.2701,0.2706,0.2689,0.2711,0.274,0.2729,0.2867,0.2826,0.2841,0.2908,0.3027,0.3035,0.3042,0.3109,0.3126,0.314,0,0,0,0,0,0,0.2559,0.2589,0.2585,0.2619,0.2655,0.269,0.2715,0.2717,0.2758,0.2759,0.2771,0.2782,0.2885,0.2885,0.2839,0.3,0.2947,0.2958,0.2993,0.3009,0.3021,0.2992,0.281,0,0,0,0,0,0.2563,0.2584,0.2619,0.2648,0.2668,0.2693,0.2715,0.2726,0.2764,0.2777,0.2808,0.2854,0.2931,0.2954,0.3021,0.3098,0.3136,0.3153,0.3166,0.3176,0.3165,0.3312,0.3336,0.307,0.307,0.307,0,0,0.2567,0.259,0.2599,0.2648,0.2674,0.2718,0.2701,0.2751,0.2789,0.2788,0.2855,0.2915,0.2968,0.3067,0.311,0.3066,0.3275,0.3186,0.3194,0.3176,0.3322,0.3348,0.3371,0.3075,0.3074,0.3073,0,0,0.2594,0.2613,0.2638,0.2674,0.2724,0.275,0.2766,0.2816,0.2838,0.2912,0.2943,0.3028,0.3109,0.3172,0.321,0.3333,0.3356,0.336,0.338,0.3525,0.3547,0.3568,0.3653,0.3681,0.3344,0.3344,0.3344,0,0.2594,0.2633,0.2658,0.27,0.2732,0.2764,0.2808,0.2851,0.2919,0.2956,0.2939,0.3117,0.3161,0.3298,0.3333,0.3363,0.3426,0.3315,0.3541,0.3562,0.3581,0.3664,0.3693,0.3349,0.3348,0.3348,0.3347,0,0.2643,0.2675,0.2703,0.2756,0.28,0.2851,0.2908,0.2957,0.2985,0.3029,0.3165,0.324,0.3338,0.338,0.3385,0.3557,0.3553,0.356,0.3496,0.3613,0.3692,0.3721,0.3355,0.3354,0.3352,0.3351,0,0,0.2635,0.2714,0.2722,0.2745,0.2834,0.2868,0.2952,0.3035,0.3087,0.3172,0.3259,0.3397,0.3444,0.3491,0.3544,0.3636,0.3831,0.3642,0.3648,0.3714,0.4126,0.4177,0.4212,0.3889,0.3895,0.3899,0.4126,0,0.266,0.2721,0.2771,0.2836,0.2872,0.2935,0.3008,0.309,0.3159,0.3258,0.3363,0.3479,0.3489,0.3551,0.3663,0.3794,0.391,0.3766,0.4011,0.4017,0.4041,0.425,0.4296,0.4509,0.4154,0.4159,0.4162,0,0.2687,0.2724,0.2778,0.2859,0.2883,0.293,0.3035,0.3104,0.3254,0.3317,0.3452,0.3546,0.3719,0.3704,0.3989,0.3901,0.4025,0.4104,0.4116,0.415,0.4124,0.4337,0.4574,0.445,0.4207,0.4203,0.42,0,0.264,0.2728,0.2759,0.2789,0.2892,0.2928,0.2984,0.3114,0.3181,0.3358,0.3431,0.3655,0.377,0.3966,0.4144,0.4094,0.4437,0.4398,0.4561,0.4562,0.464,0.4641,0.4776,0.463,0.463,0.4629,0.4628,0,0.264,0.2664,0.2731,0.2747,0.2797,0.2882,0.2959,0.3043,0.319,0.3295,0.3457,0.3586,0.3847,0.4064,0.4209,0.4492,0.4521,0.4614,0.4661,0.4668,0.4669,0.4589,0.4446,0.4637,0.4636,0.4634,0.4633,0,0.2579,0.2626,0.2656,0.2742,0.2768,0.2791,0.2908,0.2974,0.311,0.3254,0.332,0.3583,0.3887,0.4137,0.447,0.4585,0.4752,0.4916,0.4877,0.4917,0.4927,0.4786,0.476,0.4675,0.5144,0.5147,0.515,0,0.2548,0.2557,0.2616,0.2627,0.2659,0.2715,0.2768,0.2912,0.2992,0.3247,0.3319,0.3649,0.39,0.4392,0.4721,0.5067,0.4877,0.5248,0.5172,0.4984,0.4862,0.4577,0.4483,0.5302,0.5306,0.5309,0.5312,0,0.2487,0.25,0.2522,0.2541,0.2574,0.2631,0.2715,0.277,0.2967,0.3112,0.334,0.3557,0.4101,0.4497,0.4963,0.5195,0.5047,0.5318,0.5179,0.5058,0.4705,0.4628,0.5024,0.5339,0.5336,0.5334,0.5333,0.5331,0.2424,0.2415,0.2433,0.2445,0.2483,0.2532,0.2565,0.2697,0.2831,0.3064,0.3291,0.3624,0.4212,0.4906,0.5113,0.5489,0.5241,0.5455,0.5318,0.5059,0.4918,0.5341,0.5665,0.5664,0.5663,0.5663,0.5662,0,0.2339,0.2339,0.2342,0.2351,0.2354,0.2417,0.2521,0.2575,0.2712,0.3016,0.3251,0.3865,0.4382,0.4896,0.5466,0.5458,0.5324,0.537,0.499,0.4917,0.5418,0.5368,0.5577,0.5577,0.5577,0.5577,0.5577,0.5577,0.2295,0.2257,0.2256,0.2215,0.2228,0.2246,0.2293,0.2417,0.2623,0.2987,0.3331,0.3635,0.4253,0.4925,0.5279,0.5296,0.4929,0.4833,0.4646,0.5013,0.5007,0.5002,0.4928,0.504,0.5039,0.4127,0.412,0.4114]},{"header":{"parameterUnit":"m.s-1","parameterCategory":2,"la1":30.2991,"la2":30.254,"lo1":-89.0895,"lo2":-89.0444,"dy":0.0017,"dx":0.0017,"nx":28,"ny":28,"refTime":"2023-06-27T21:00:00:Z","depth":"0","parameterNumber":3,"parameterNumberName":"V-component_of_CURRENTS"},"data":[0,0,0,0,0,0,0,0,0,0,0,0,0,0,0,0,0,0,0,0,0,0,0,0,0,0,0,0,0,0,0,0,0,0,0,0,0,0,0,0,0,0,0,0,0,0,0,0,0,0,0,0,0,0,0,0,0,0,-0.0546,-0.0546,0,-0.0484,-0.0483,-0.0483,-0.0521,-0.0523,-0.0525,-0.0526,-0.06,-0.0601,-0.0601,0,0,0,0,0,0,0,0,0,0,0,0,0,-0.0709,-0.0706,-0.0546,-0.0546,-0.0545,-0.0484,-0.0483,-0.0483,-0.0521,-0.0523,-0.0525,-0.0527,-0.06,-0.0601,-0.0601,0,0,0,0,0,0,0,0,0,0,0,0,0,-0.0643,-0.0705,-0.0547,-0.0555,-0.0556,-0.0484,-0.0483,-0.0482,-0.052,-0.0523,-0.0526,-0.0528,-0.06,-0.0601,-0.0601,-0.0554,0,0,-0.0603,-0.0603,0,0,0,0,0,0,0,0,-0.0647,-0.0637,-0.0555,-0.0555,-0.0555,-0.0512,-0.0568,-0.0513,-0.052,-0.0535,-0.0526,-0.0529,-0.0581,-0.0583,-0.0565,-0.0557,-0.0561,-0.0603,-0.0603,-0.0604,-0.0604,0,0,0,0,0,0,0,-0.0651,-0.064,-0.0523,-0.0554,-0.0553,-0.0566,-0.0559,-0.0557,-0.0548,-0.0534,-0.0536,-0.0526,-0.0582,-0.0565,-0.0568,-0.0562,-0.0603,-0.0604,-0.0604,-0.0604,-0.0534,-0.0532,0,0,0,0,0,0,-0.0652,-0.0644,-0.0525,-0.0521,-0.0606,-0.0561,-0.0554,-0.0524,-0.0545,-0.0549,-0.0524,-0.0528,-0.0562,-0.0567,-0.0571,-0.0506,-0.0604,-0.0604,-0.0605,-0.0536,-0.0533,-0.0531,0,0,0,0,0,0,-0.0655,-0.0641,-0.0528,-0.0582,-0.0568,-0.0555,-0.0522,-0.0521,-0.0513,-0.0536,-0.0544,-0.0518,-0.0565,-0.057,-0.055,-0.0511,-0.0604,-0.0605,-0.0539,-0.0535,-0.0532,-0.0384,0,0,0,0,0,0,-0.066,-0.0642,-0.0618,-0.0581,-0.0565,-0.0473,-0.0519,-0.0518,-0.0502,-0.0507,-0.0533,-0.0541,-0.0567,-0.0549,-0.0551,-0.0513,-0.0605,-0.0541,-0.0537,-0.0533,-0.0392,-0.0376,-0.0363,0,0,0,0,0,-0.0665,-0.061,-0.0617,-0.0603,-0.0532,-0.0471,-0.0463,-0.0465,-0.05,-0.0473,-0.0489,-0.0541,-0.0525,-0.0546,-0.055,-0.0511,-0.0543,-0.0538,-0.0533,-0.0398,-0.0379,-0.0363,0,0,0,0,0,0,-0.0652,-0.0607,-0.0614,-0.0545,-0.0511,-0.0477,-0.0446,-0.0459,-0.0446,-0.0461,-0.0501,-0.0508,-0.0481,-0.0511,-0.0534,-0.048,-0.0547,-0.0543,-0.0444,-0.0426,-0.0412,-0.0398,-0.0606,0,0,0,0,0,-0.064,-0.0592,-0.0559,-0.0498,-0.0483,-0.0469,-0.0447,-0.0449,-0.0434,-0.0432,-0.0445,-0.0461,-0.0456,-0.0455,-0.0459,-0.0418,-0.046,-0.04,-0.0385,-0.0373,-0.0363,-0.038,-0.0366,-0.0514,-0.0515,-0.0515,0,0,-0.0613,-0.0583,-0.0554,-0.0494,-0.047,-0.0417,-0.0461,-0.0416,-0.0374,-0.0441,-0.039,-0.0412,-0.0435,-0.0389,-0.0381,-0.0413,-0.035,-0.0366,-0.0355,-0.0353,-0.0374,-0.0359,-0.0347,-0.0511,-0.0512,-0.0512,0,0,-0.0537,-0.0514,-0.0459,-0.0427,-0.0388,-0.0372,-0.0361,-0.0328,-0.0319,-0.027,-0.031,-0.03,-0.0291,-0.0287,-0.029,-0.0197,-0.0276,-0.0208,-0.0116,-0.0132,-0.012,-0.011,-0.0134,-0.0128,-0.0197,-0.0196,-0.0196,0,-0.0517,-0.0436,-0.043,-0.0372,-0.0335,-0.035,-0.0286,-0.026,-0.0225,-0.0208,-0.0242,-0.0212,-0.0238,-0.018,-0.0146,-0.0163,-0.0193,-0.0179,-0.0112,-0.0104,-0.0096,-0.0124,-0.0119,-0.0189,-0.019,-0.019,-0.0191,0,-0.0406,-0.0346,-0.0305,-0.0241,-0.02,-0.014,-0.0116,-0.0081,-0.0087,-0.0075,-0.0031,-0.0046,-0.0037,-0.0036,-0.0059,-0.0006,-0.0051,-0.0095,-0.0156,-0.0072,-0.0107,-0.0104,-0.0178,-0.018,-0.0183,-0.0185,0,0,-0.0356,-0.0251,-0.0239,-0.019,-0.013,-0.0079,-0.001,0.0052,0.0093,0.0109,0.0168,0.0182,0.0147,0.0143,0.0113,0.0112,0.0144,0.0043,0.0039,0.0021,0.0105,0.0072,0.0071,0.0108,0.0109,0.011,0.0063,0,-0.0277,-0.0147,-0.0118,0.0006,0.0074,0.0085,0.0158,0.0201,0.0218,0.0272,0.0253,0.0289,0.0224,0.0233,0.0226,0.0162,0.0156,0.016,0.0025,0.0021,-0.0018,0.0075,0.0141,0.0105,0.0065,0.0066,0.0066,0,-0.0187,-0.0111,0.002,0.0131,0.0159,0.0225,0.0315,0.0377,0.0428,0.0436,0.0455,0.0428,0.0446,0.0369,0.0305,0.0309,0.0225,0.0166,0.0161,0.008,-0.0007,0.0012,0.011,-0.0059,0.0069,0.0069,0.0069,0,-0.0148,-0.0014,0.0094,0.0134,0.0252,0.0306,0.0363,0.0424,0.0484,0.0538,0.0575,0.0564,0.0568,0.0478,0.0356,0.033,0.0271,0.0207,0.01,0.0095,0.0099,0.0093,0.0019,0.0161,0.0161,0.0161,0.0162,0,-0.0069,0.002,0.012,0.0185,0.0309,0.036,0.0475,0.0524,0.0599,0.0686,0.0659,0.0718,0.0593,0.0542,0.0411,0.0276,0.0304,0.0138,0.0094,0.0153,0.0152,-0.0042,-0.0163,0.016,0.016,0.016,0.0161,0,-0.0021,0.0044,0.0174,0.0297,0.0338,0.0426,0.0552,0.0632,0.0685,0.08,0.0826,0.0834,0.0772,0.0637,0.0492,0.0347,0.0109,0.0156,0.0232,0.0198,-0.0078,-0.0192,-0.0355,-0.0503,0.0032,0.0031,0.003,0,0.0025,0.0097,0.0245,0.0321,0.0384,0.0504,0.0592,0.0673,0.0757,0.0877,0.0945,0.093,0.0951,0.0733,0.0499,0.0281,0.0087,0.0155,0.0114,-0.006,-0.0221,-0.0317,-0.0438,0.0179,0.0179,0.018,0.018,0,0.0108,0.0153,0.0255,0.04,0.0506,0.0637,0.0762,0.0839,0.0944,0.1045,0.116,0.1191,0.1009,0.0864,0.0559,0.0373,0.0016,0.0153,-0.0031,-0.0106,-0.0209,-0.0383,0.0156,0.0184,0.0183,0.0183,0.0183,0.0183,0.0156,0.024,0.036,0.0499,0.0623,0.0775,0.0889,0.1012,0.1168,0.1362,0.1347,0.1488,0.1243,0.0859,0.0534,0.0068,-0.0012,-0.0062,-0.0184,-0.0264,-0.0409,0.0129,0.0101,0.01,0.0099,0.0099,0.0098,0,0.0218,0.0319,0.0455,0.0633,0.078,0.0829,0.1015,0.114,0.1334,0.154,0.1667,0.1752,0.1376,0.0952,0.0353,-0.0108,-0.0352,-0.0382,-0.0484,-0.0598,-0.0092,-0.0086,-0.0149,-0.0149,-0.0149,-0.0149,-0.0149,-0.0148,0.0261,0.0395,0.0473,0.0732,0.0864,0.107,0.1183,0.1366,0.1552,0.1883,0.2104,0.2231,0.2046,0.0785,-0.0117,-0.0388,-0.0778,-0.0856,-0.112,-0.0729,-0.0708,-0.0688,-0.0708,-0.0901,-0.0902,-0.1551,-0.1557,-0.1562]}],[{"header":{"parameterUnit":"m.s-1","parameterCategory":2,"la1":30.2991,"la2":30.254,"lo1":-89.0895,"lo2":-89.0444,"dy":0.0017,"dx":0.0017,"nx":28,"ny":28,"refTime":"2023-06-27T21:00:00:Z","depth":"2","parameterNumber":2,"parameterNumberName":"U-component_of_CURRENTS"},"data":[0,0,0,0,0,0,0,0,0,0,0,0,0,0,0,0,0,0,0,0,0,0,0,0,0,0,0,0,0,0,0,0,0,0,0,0,0,0,0,0,0,0,0,0,0,0,0,0,0,0,0,0,0,0,0,0,0,0,0.0958,0.0959,0,0.1051,0.1051,0.1052,0.1063,0.1062,0.1061,0.1061,0.1105,0.1107,0.1109,0,0,0,0,0,0,0,0,0,0,0,0,0,0.0759,0.0762,0.0958,0.0959,0.0961,0.105,0.1051,0.1052,0.1063,0.1062,0.1061,0.1061,0.1105,0.1107,0.1109,0,0,0,0,0,0,0,0,0,0,0,0,0,0.0845,0.0763,0.0958,0.0979,0.0982,0.105,0.1051,0.1053,0.1063,0.1062,0.1061,0.106,0.1104,0.1107,0.1109,0.1145,0,0,0.1117,0.1119,0,0,0,0,0,0,0,0,0.084,0.0852,0.0975,0.0978,0.0981,0.1047,0.0998,0.1082,0.1063,0.1029,0.1061,0.106,0.1084,0.1088,0.1104,0.1147,0.1149,0.1118,0.1119,0.112,0.1121,0,0,0,0,0,0,0,0.0834,0.0847,0.0991,0.0976,0.0981,0.0974,0.0985,0.1014,0.1057,0.1032,0.1034,0.1049,0.1085,0.1102,0.1105,0.115,0.1118,0.112,0.1122,0.1123,0.1273,0.1276,0,0,0,0,0,0,0.0832,0.0843,0.0989,0.0994,0.091,0.0978,0.0991,0.1024,0.1058,0.1064,0.105,0.105,0.1097,0.1102,0.1107,0.1234,0.112,0.1123,0.1124,0.1271,0.1274,0.1276,0,0,0,0,0,0,0.0828,0.0845,0.0985,0.0921,0.0939,0.0983,0.1021,0.1027,0.1066,0.1073,0.1077,0.1085,0.1097,0.1103,0.1165,0.1232,0.1124,0.1127,0.1268,0.1272,0.1275,0.1435,0,0,0,0,0,0,0.0822,0.0844,0.0879,0.0922,0.0943,0.1055,0.1022,0.1029,0.1077,0.1077,0.1105,0.1106,0.1097,0.1161,0.1168,0.1234,0.1129,0.1265,0.127,0.1274,0.1427,0.1443,0.1458,0,0,0,0,0,0.0815,0.0872,0.088,0.0898,0.0987,0.1058,0.1069,0.1092,0.108,0.1119,0.1134,0.1107,0.1193,0.1166,0.1173,0.1242,0.1263,0.1268,0.1274,0.1419,0.144,0.1458,0,0,0,0,0,0,0.0815,0.088,0.089,0.0967,0.102,0.1061,0.1107,0.1113,0.1156,0.116,0.1147,0.1153,0.1229,0.1211,0.1181,0.1294,0.122,0.1227,0.1329,0.1348,0.1363,0.1381,0.1131,0,0,0,0,0,0.0829,0.0885,0.0942,0.1007,0.1039,0.1075,0.1109,0.1128,0.1166,0.1185,0.1205,0.1222,0.1255,0.1281,0.1303,0.1375,0.1363,0.1418,0.1433,0.1447,0.1464,0.1492,0.1512,0.1294,0.1294,0.1294,0,0,0.0845,0.0891,0.0923,0.101,0.1051,0.1117,0.1094,0.1167,0.122,0.1184,0.1271,0.1284,0.1285,0.1365,0.1397,0.1362,0.1509,0.1454,0.1466,0.1476,0.15,0.1521,0.154,0.1298,0.1297,0.1297,0,0,0.0902,0.0953,0.1014,0.1065,0.1143,0.1171,0.1198,0.1263,0.1296,0.138,0.1362,0.1416,0.1472,0.1491,0.1503,0.1616,0.1588,0.1625,0.1731,0.1759,0.1777,0.1793,0.1834,0.1852,0.1637,0.1638,0.1638,0,0.0914,0.1004,0.1044,0.1117,0.1166,0.1199,0.1271,0.132,0.1396,0.1435,0.1427,0.1528,0.1531,0.1619,0.1667,0.1655,0.1671,0.1663,0.1781,0.1796,0.181,0.1848,0.1866,0.1646,0.1645,0.1644,0.1643,0,0.1013,0.1086,0.1134,0.1229,0.1287,0.1364,0.1427,0.1494,0.1533,0.1573,0.1681,0.1703,0.1759,0.1776,0.1767,0.1874,0.1857,0.1796,0.1736,0.1842,0.1875,0.1891,0.1658,0.1655,0.1652,0.165,0,0,0.1034,0.117,0.1188,0.1242,0.1353,0.1408,0.1513,0.1612,0.1679,0.1764,0.1853,0.1936,0.1953,0.1967,0.1966,0.2005,0.2127,0.1967,0.1964,0.2015,0.2221,0.2194,0.2207,0.2097,0.21,0.2102,0.2216,0,0.1097,0.1227,0.1285,0.141,0.1483,0.1547,0.1637,0.1728,0.18,0.1898,0.1949,0.2035,0.2023,0.2069,0.2116,0.212,0.2173,0.2104,0.2104,0.2104,0.2073,0.2226,0.1896,0.1968,0.2231,0.2234,0.2235,0,0.1178,0.1252,0.1376,0.1498,0.1536,0.1614,0.175,0.1839,0.197,0.2029,0.2132,0.2166,0.2279,0.2222,0.2325,0.229,0.2286,0.2275,0.2278,0.2206,0.2107,0.1899,0.1986,0.2261,0.2259,0.2257,0.2255,0,0.1173,0.1317,0.1409,0.1457,0.16,0.167,0.1753,0.1886,0.1966,0.2123,0.2194,0.2313,0.2383,0.2414,0.2448,0.2396,0.2533,0.2432,0.2404,0.2401,0.2096,0.2062,0.2491,0.2491,0.2491,0.2491,0.249,0,0.1225,0.1301,0.1415,0.1473,0.1579,0.1685,0.181,0.191,0.2052,0.2155,0.2267,0.2359,0.2437,0.2521,0.2513,0.2553,0.2592,0.2471,0.2445,0.2146,0.2117,0.2327,0.2306,0.2495,0.2494,0.2493,0.2492,0,0.1223,0.1302,0.1405,0.1542,0.1586,0.1667,0.1824,0.1908,0.2061,0.2198,0.2259,0.2429,0.2571,0.2642,0.2704,0.2639,0.2659,0.2646,0.2317,0.2252,0.2487,0.2473,0.2624,0.2624,0.2625,0.2625,0.2625,0,0.1239,0.1294,0.1422,0.1466,0.1534,0.1654,0.1733,0.1898,0.1984,0.2226,0.2282,0.2489,0.2588,0.2719,0.2663,0.2681,0.2741,0.2374,0.2203,0.255,0.2509,0.2495,0.2481,0.1862,0.1856,0.1851,0.1847,0,0.1246,0.1286,0.1351,0.144,0.1522,0.1612,0.174,0.18,0.2,0.2119,0.2297,0.2401,0.254,0.244,0.2488,0.2412,0.235,0.2276,0.2723,0.1897,0.1845,0.1801,0.1809,0.1803,0.1808,0.1811,0.1813,0.1815,0.1225,0.1253,0.1325,0.1406,0.1481,0.1562,0.1625,0.1741,0.1863,0.1999,0.2151,0.2196,0.2162,0.209,0.208,0.2053,0.2162,0.1967,0.1976,0.1991,0.19,0.1854,0.1797,0.1801,0.1804,0.1808,0.181,0,0.1196,0.1231,0.1289,0.1377,0.1425,0.1504,0.1616,0.1647,0.1743,0.1812,0.1911,0.1664,0.1598,0.1683,0.1554,0.1539,0.1451,0.149,0.1325,0.1364,0.14,0.1276,0.101,0.1009,0.1009,0.1009,0,0,0.1181,0.121,0.1242,0.13,0.1364,0.1434,0.1487,0.152,0.155,0.1479,0.1428,0.1443,0.1511,0.1222,0.1172,0.1123,0.1247,0.1056,0.1658,0.1495,0.1533,0.1596,0.1439,0,0,0,0,0]},{"header":{"parameterUnit":"m.s-1","parameterCategory":2,"la1":30.2991,"la2":30.254,"lo1":-89.0895,"lo2":-89.0444,"dy":0.0017,"dx":0.0017,"nx":28,"ny":28,"refTime":"2023-06-27T21:00:00:Z","depth":"2","parameterNumber":3,"parameterNumberName":"V-component_of_CURRENTS"},"data":[0,0,0,0,0,0,0,0,0,0,0,0,0,0,0,0,0,0,0,0,0,0,0,0,0,0,0,0,0,0,0,0,0,0,0,0,0,0,0,0,0,0,0,0,0,0,0,0,0,0,0,0,0,0,0,0,0,0,0.0103,0.0102,0,0.0046,0.0046,0.0045,-0.0024,-0.0025,-0.0026,-0.0026,-0.0142,-0.0144,-0.0146,0,0,0,0,0,0,0,0,0,0,0,0,0,0.01,0.0101,0.0103,0.0102,0.0102,0.0047,0.0046,0.0045,-0.0024,-0.0025,-0.0026,-0.0027,-0.0141,-0.0143,-0.0146,0,0,0,0,0,0,0,0,0,0,0,0,0,0.0077,0.0101,0.0103,0.0062,0.0058,0.0047,0.0046,0.0044,-0.0023,-0.0025,-0.0026,-0.0027,-0.014,-0.0143,-0.0146,-0.014,0,0,-0.0157,-0.0158,0,0,0,0,0,0,0,0,0.0078,0.0077,0.0069,0.0065,0.0061,0.0019,0.0003,-0.002,-0.0023,0.0006,-0.0026,-0.0028,-0.0091,-0.0099,-0.0108,-0.0146,-0.0151,-0.0157,-0.0159,-0.016,-0.0161,0,0,0,0,0,0,0,0.008,0.0078,0.0078,0.0069,0.0064,0.003,0.0025,-0.0002,-0.0037,0.0003,-0.0002,-0.0004,-0.0094,-0.0105,-0.0111,-0.0152,-0.0157,-0.016,-0.0162,-0.0163,-0.0247,-0.0247,0,0,0,0,0,0,0.0095,0.0081,0.008,0.0077,0.0069,0.0031,0.0026,0.0032,-0.0036,-0.0046,-0.0003,-0.0007,-0.0098,-0.0107,-0.0116,-0.0146,-0.016,-0.0164,-0.0166,-0.0246,-0.0247,-0.0247,0,0,0,0,0,0,0.0096,0.0096,0.0083,0.0078,0.0074,0.0033,0.004,0.0032,0.0014,-0.0039,-0.0052,-0.0013,-0.01,-0.0111,-0.0142,-0.015,-0.0165,-0.0168,-0.0246,-0.0246,-0.0247,-0.0184,0,0,0,0,0,0,0.0096,0.0097,0.01,0.008,0.0075,0.0083,0.0041,0.0032,0.0016,0.0009,-0.0051,-0.0063,-0.0102,-0.0137,-0.0146,-0.0155,-0.0171,-0.0246,-0.0246,-0.0247,-0.0186,-0.0183,-0.0179,0,0,0,0,0,0.0096,0.0121,0.0101,0.01,0.0083,0.0084,0.0079,0.0042,0.0017,0.0019,-0.0027,-0.0062,-0.0147,-0.0139,-0.0149,-0.016,-0.0246,-0.0246,-0.0247,-0.0188,-0.0183,-0.018,0,0,0,0,0,0,0.0127,0.0116,0.0093,0.0113,0.0098,0.0073,0.0074,0.0048,0.0014,0.0003,-0.0055,-0.0068,-0.0102,-0.0135,-0.0126,-0.0187,-0.0206,-0.0208,-0.0157,-0.0154,-0.015,-0.0118,-0.0174,0,0,0,0,0,0.0135,0.0144,0.0126,0.0139,0.0137,0.0103,0.0095,0.0073,0.0045,0.0028,-0.0013,-0.0064,-0.0109,-0.0134,-0.0172,-0.0195,-0.0245,-0.0213,-0.0209,-0.0206,-0.0187,-0.0292,-0.0297,-0.0248,-0.0248,-0.0248,0,0,0.0152,0.0144,0.015,0.0144,0.0129,0.014,0.0095,0.0095,0.0092,0.0022,0.0005,-0.0048,-0.0112,-0.0144,-0.0163,-0.0174,-0.0244,-0.0207,-0.0203,-0.0186,-0.0293,-0.0298,-0.0303,-0.0249,-0.0249,-0.0249,0,0,0.0202,0.0184,0.0211,0.0203,0.0188,0.0168,0.0171,0.0147,0.0122,0.0107,0.0043,-0.001,-0.006,-0.0118,-0.0153,-0.0152,-0.022,-0.0171,-0.013,-0.0232,-0.0237,-0.0242,-0.0298,-0.0308,-0.0173,-0.0172,-0.0172,0,0.0221,0.025,0.0219,0.024,0.0242,0.0186,0.0216,0.0187,0.0152,0.0135,0.0113,0.0009,-0.0048,-0.0111,-0.0114,-0.0145,-0.0198,-0.0139,-0.0228,-0.0234,-0.024,-0.0296,-0.0309,-0.0169,-0.017,-0.017,-0.017,0,0.0291,0.0307,0.0326,0.033,0.0324,0.0343,0.0304,0.0287,0.0251,0.0215,0.0156,0.0073,0.0013,-0.0029,-0.0067,-0.0142,-0.0163,-0.021,-0.0235,-0.0241,-0.03,-0.0314,-0.0165,-0.0166,-0.0167,-0.0168,0,0,0.036,0.0374,0.0379,0.0395,0.0374,0.0384,0.0373,0.0352,0.0345,0.0279,0.0259,0.0158,0.0105,0.0062,-0.0017,-0.0109,-0.02,-0.0166,-0.0173,-0.0213,-0.0398,-0.0333,-0.0342,-0.0272,-0.0275,-0.0277,-0.0417,0,0.0426,0.0488,0.0471,0.052,0.0551,0.0497,0.0497,0.0459,0.0412,0.0376,0.0258,0.0215,0.0138,0.011,0.0002,-0.0148,-0.0236,-0.0155,-0.0392,-0.0398,-0.0335,-0.0356,-0.0349,-0.0467,-0.0431,-0.0433,-0.0435,0,0.0504,0.0534,0.0603,0.062,0.0628,0.0646,0.063,0.0624,0.0543,0.0505,0.0423,0.0335,0.0208,0.0139,-0.0117,-0.0063,-0.0211,-0.0336,-0.0346,-0.0312,-0.0359,-0.046,-0.0494,-0.0459,-0.0457,-0.0455,-0.0454,0,0.0578,0.0625,0.0682,0.069,0.0702,0.072,0.0721,0.067,0.0666,0.0592,0.0577,0.0408,0.0336,0.0116,-0.0114,-0.0129,-0.0396,-0.0458,-0.0537,-0.0534,-0.0583,-0.0579,-0.0641,-0.0641,-0.0641,-0.064,-0.064,0,0.066,0.0706,0.0727,0.0764,0.0826,0.0807,0.085,0.0825,0.0789,0.0785,0.0659,0.0615,0.0322,0.014,-0.0088,-0.033,-0.0381,-0.0519,-0.057,-0.0557,-0.0548,-0.0588,-0.058,-0.0646,-0.0645,-0.0643,-0.0643,0,0.0735,0.075,0.0818,0.0853,0.0869,0.0917,0.0944,0.0964,0.0934,0.0924,0.091,0.075,0.0532,0.0252,-0.0099,-0.0268,-0.0524,-0.06,-0.0526,-0.0564,-0.0602,-0.0589,-0.0712,-0.071,-0.071,-0.0709,-0.0708,0,0.078,0.0827,0.0886,0.0925,0.0951,0.101,0.1045,0.1038,0.1054,0.1003,0.0998,0.0826,0.0696,0.0262,-0.0062,-0.0412,-0.0499,-0.0617,-0.0642,-0.0573,-0.0612,-0.0601,-0.0589,-0.0697,-0.0696,-0.0696,-0.0695,0,0.0863,0.088,0.0927,0.1004,0.1061,0.112,0.117,0.12,0.1185,0.1192,0.1156,0.1063,0.0703,0.0337,-0.0083,-0.0307,-0.0554,-0.0611,-0.0618,-0.0642,-0.0561,-0.0598,-0.0588,-0.0691,-0.0691,-0.0692,-0.0692,-0.0692,0.0907,0.0949,0.1,0.1073,0.1138,0.1207,0.1265,0.1311,0.1358,0.1352,0.1265,0.1082,0.0668,0.0098,-0.0183,-0.0452,-0.0471,-0.0651,-0.0654,-0.0657,-0.0592,-0.051,-0.0617,-0.0617,-0.0617,-0.0617,-0.0617,0,0.0943,0.0986,0.106,0.1141,0.1215,0.1243,0.1326,0.138,0.1455,0.1383,0.1359,0.0832,0.0487,0.0072,-0.0309,-0.0534,-0.0551,-0.0623,-0.0651,-0.0655,-0.0659,-0.0594,-0.062,-0.062,-0.062,-0.0621,0,0,0.0962,0.1023,0.106,0.1181,0.1247,0.1351,0.1406,0.1494,0.1462,0.1308,0.1115,0.0957,0.0415,0.0085,-0.022,-0.041,-0.0452,-0.0421,-0.0401,-0.0399,-0.0399,-0.0668,-0.0571,0,0,0,0,0]}],[{"header":{"parameterUnit":"m.s-1","parameterCategory":2,"la1":30.2991,"la2":30.254,"lo1":-89.0895,"lo2":-89.0444,"dy":0.0017,"dx":0.0017,"nx":28,"ny":28,"refTime":"2023-06-27T21:00:00:Z","depth":"4","parameterNumber":2,"parameterNumberName":"U-component_of_CURRENTS"},"data":[0,0,0,0,0,0,0,0,0,0,0,0,0,0,0,0,0,0,0,0,0,0,0,0,0,0,0,0,0,0,0,0,0,0,0,0,0,0,0,0,0,0,0,0,0,0,0,0,0,0,0,0,0,0,0,0,0,0,0.0499,0.05,0,0.0536,0.0536,0.0536,0.0572,0.0573,0.0573,0.0574,0.0607,0.0607,0.0608,0,0,0,0,0,0,0,0,0,0,0,0,0,0.0441,0.0442,0.0499,0.05,0.05,0.0536,0.0536,0.0537,0.0572,0.0573,0.0574,0.0574,0.0607,0.0607,0.0608,0,0,0,0,0,0,0,0,0,0,0,0,0,0.047,0.0442,0.0499,0.0522,0.0525,0.0536,0.0536,0.0537,0.0572,0.0573,0.0574,0.0574,0.0607,0.0607,0.0608,0.0597,0,0,0.061,0.061,0,0,0,0,0,0,0,0,0.0469,0.0472,0.0519,0.0521,0.0524,0.055,0.0528,0.0557,0.0572,0.0554,0.0574,0.0575,0.0587,0.059,0.0595,0.0599,0.06,0.061,0.061,0.061,0.0611,0,0,0,0,0,0,0,0.0466,0.0471,0.0514,0.0519,0.0522,0.0524,0.0529,0.0533,0.0566,0.0556,0.0558,0.0563,0.0589,0.0594,0.0596,0.0601,0.061,0.061,0.0611,0.0611,0.06,0.0599,0,0,0,0,0,0,0.0463,0.0469,0.0512,0.0515,0.0498,0.0525,0.0531,0.0541,0.0566,0.0571,0.0562,0.0564,0.0592,0.0595,0.0597,0.0607,0.061,0.0611,0.0611,0.06,0.0599,0.0599,0,0,0,0,0,0,0.0461,0.0466,0.0511,0.0492,0.0498,0.0525,0.0536,0.0541,0.0569,0.0571,0.0576,0.0587,0.0593,0.0596,0.0617,0.0607,0.0611,0.0612,0.0601,0.06,0.0599,0.0612,0,0,0,0,0,0,0.046,0.0466,0.0489,0.0492,0.0499,0.0522,0.0536,0.0541,0.0569,0.0573,0.0593,0.0596,0.0594,0.0616,0.0617,0.0608,0.0612,0.0602,0.0601,0.0599,0.0613,0.0612,0.0611,0,0,0,0,0,0.0458,0.0477,0.049,0.0496,0.0524,0.0522,0.0525,0.0546,0.057,0.0576,0.0597,0.0597,0.0607,0.0617,0.0618,0.0609,0.0603,0.0601,0.0599,0.0613,0.0612,0.0611,0,0,0,0,0,0,0.0464,0.0483,0.0497,0.0523,0.0526,0.0528,0.0548,0.0559,0.0581,0.0598,0.0603,0.0606,0.0613,0.061,0.062,0.0598,0.0598,0.0597,0.0608,0.0607,0.0606,0.0619,0.0613,0,0,0,0,0,0.0475,0.0498,0.0503,0.0526,0.0532,0.0546,0.0557,0.0565,0.0578,0.0591,0.0609,0.0615,0.0603,0.0609,0.0603,0.0606,0.0612,0.0594,0.0593,0.0593,0.0602,0.059,0.0589,0.0594,0.0594,0.0594,0,0,0.0484,0.0498,0.0513,0.0529,0.0542,0.0553,0.0555,0.0572,0.059,0.0589,0.0636,0.062,0.0603,0.0598,0.0599,0.0601,0.0598,0.0591,0.0591,0.0601,0.0588,0.0588,0.0588,0.0593,0.0593,0.0593,0,0,0.0495,0.0526,0.0543,0.0551,0.0568,0.0574,0.0583,0.0599,0.0618,0.0637,0.0635,0.0625,0.0627,0.0609,0.0597,0.059,0.0593,0.0577,0.0589,0.0576,0.0576,0.0576,0.0603,0.0605,0.0577,0.0577,0.0577,0,0.0506,0.0531,0.0545,0.0559,0.0576,0.0587,0.0603,0.0618,0.0641,0.0653,0.0654,0.064,0.0629,0.0608,0.0596,0.059,0.0596,0.0597,0.0577,0.0577,0.0577,0.0604,0.0606,0.0578,0.0578,0.0578,0.0578,0,0.0513,0.0549,0.0559,0.0589,0.0604,0.0619,0.0636,0.0661,0.0682,0.0686,0.0684,0.0661,0.0646,0.0627,0.061,0.0591,0.0602,0.0578,0.0585,0.0577,0.0606,0.0609,0.0579,0.0578,0.0578,0.0578,0,0,0.0497,0.0554,0.0563,0.0589,0.0625,0.0633,0.0671,0.0691,0.0715,0.0717,0.0732,0.0689,0.0672,0.0655,0.0625,0.061,0.0612,0.0594,0.0593,0.0632,0.0614,0.0605,0.0607,0.0582,0.0581,0.0581,0.0643,0,0.0501,0.0539,0.0568,0.0615,0.0637,0.067,0.07,0.0723,0.0739,0.0758,0.0725,0.0717,0.0683,0.0663,0.0643,0.0613,0.0615,0.0599,0.0606,0.0607,0.0608,0.0607,0.0581,0.0645,0.0645,0.0646,0.0646,0,0.0496,0.0527,0.0577,0.0637,0.065,0.0688,0.0741,0.0761,0.0783,0.0787,0.0773,0.0751,0.0724,0.0691,0.0663,0.0653,0.064,0.0623,0.0625,0.0613,0.0601,0.0647,0.065,0.065,0.065,0.0649,0.0649,0,0.0471,0.0533,0.0582,0.0603,0.0668,0.0711,0.0742,0.078,0.0799,0.0808,0.0814,0.0781,0.0767,0.0732,0.0694,0.0676,0.0677,0.0647,0.064,0.0642,0.0628,0.0627,0.0641,0.0641,0.0641,0.0641,0.064,0,0.0457,0.0496,0.0587,0.0613,0.0669,0.0715,0.0768,0.079,0.0823,0.0831,0.0826,0.0805,0.0773,0.0762,0.0721,0.0696,0.07,0.0654,0.065,0.0635,0.0633,0.0632,0.063,0.0643,0.0642,0.0642,0.0642,0,0.0424,0.0484,0.0539,0.0629,0.0666,0.0705,0.0786,0.0804,0.0845,0.0859,0.0858,0.0841,0.0807,0.08,0.0756,0.0739,0.0707,0.0701,0.0726,0.0721,0.0683,0.0681,0.0703,0.0703,0.0703,0.0703,0.0703,0,0.0408,0.044,0.0547,0.0589,0.0645,0.0714,0.075,0.0804,0.0814,0.0853,0.0838,0.0842,0.0819,0.0771,0.0749,0.0731,0.071,0.0737,0.0672,0.0692,0.0686,0.0684,0.0682,0.0703,0.0703,0.0703,0.0703,0,0.0373,0.0427,0.0473,0.0556,0.0624,0.0667,0.0725,0.0731,0.0775,0.0834,0.0799,0.079,0.0775,0.0728,0.0749,0.0711,0.0735,0.0736,0.0735,0.0674,0.0692,0.0686,0.0684,0.0703,0.0703,0.0703,0.0703,0,0.035,0.0369,0.0442,0.0509,0.0588,0.0609,0.0637,0.0659,0.0681,0.0743,0.0717,0.0719,0.0741,0.0717,0.0702,0.0706,0.0683,0.0679,0.068,0.0681,0.0642,0.066,0.0665,0,0,0,0,0,0.0322,0.0336,0.0386,0.0446,0.0518,0.0561,0.0617,0.0636,0.0695,0.0663,0.07,0.0671,0.0669,0.0649,0.0643,0.0683,0.0682,0.0678,0.0676,0.0704,0.0704,0.0659,0,0,0,0,0,0,0.0303,0.0344,0.0358,0.0392,0.0424,0.0473,0.051,0.0536,0.0519,0.0588,0.0563,0.0658,0.0626,0.0654,0.0629,0.0638,0.0635,0.0704,0.0704,0.0704,0.0704,0.0704,0.0658,0,0,0,0,0]},{"header":{"parameterUnit":"m.s-1","parameterCategory":2,"la1":30.2991,"la2":30.254,"lo1":-89.0895,"lo2":-89.0444,"dy":0.0017,"dx":0.0017,"nx":28,"ny":28,"refTime":"2023-06-27T21:00:00:Z","depth":"4","parameterNumber":3,"parameterNumberName":"V-component_of_CURRENTS"},"data":[0,0,0,0,0,0,0,0,0,0,0,0,0,0,0,0,0,0,0,0,0,0,0,0,0,0,0,0,0,0,0,0,0,0,0,0,0,0,0,0,0,0,0,0,0,0,0,0,0,0,0,0,0,0,0,0,0,0,-0.0181,-0.0182,0,-0.026,-0.0261,-0.0262,-0.0326,-0.0326,-0.0327,-0.0327,-0.0475,-0.0479,-0.0482,0,0,0,0,0,0,0,0,0,0,0,0,0,-0.0077,-0.0079,-0.0181,-0.0182,-0.0183,-0.026,-0.0261,-0.0262,-0.0325,-0.0326,-0.0327,-0.0328,-0.0474,-0.0478,-0.0482,0,0,0,0,0,0,0,0,0,0,0,0,0,-0.0136,-0.0079,-0.0181,-0.0224,-0.0228,-0.026,-0.0261,-0.0263,-0.0325,-0.0326,-0.0327,-0.0328,-0.0473,-0.0478,-0.0483,-0.0495,0,0,-0.0498,-0.05,0,0,0,0,0,0,0,0,-0.0133,-0.014,-0.0216,-0.0221,-0.0226,-0.0284,-0.0279,-0.0344,-0.0325,-0.0289,-0.0327,-0.0328,-0.0417,-0.0426,-0.0439,-0.0502,-0.0509,-0.0499,-0.0502,-0.0504,-0.0505,0,0,0,0,0,0,0,-0.0129,-0.0137,-0.0213,-0.0217,-0.0223,-0.0236,-0.0246,-0.0291,-0.0348,-0.0292,-0.0297,-0.0305,-0.042,-0.0434,-0.0443,-0.0511,-0.0498,-0.0503,-0.0506,-0.0508,-0.0664,-0.0665,0,0,0,0,0,0,-0.0118,-0.0133,-0.021,-0.0215,-0.018,-0.0237,-0.0248,-0.0264,-0.0346,-0.0359,-0.0304,-0.0307,-0.0424,-0.0437,-0.0448,-0.0537,-0.0504,-0.0509,-0.0511,-0.0663,-0.0664,-0.0665,0,0,0,0,0,0,-0.0116,-0.0124,-0.0207,-0.0175,-0.0187,-0.0238,-0.0256,-0.0265,-0.0306,-0.0354,-0.0369,-0.0337,-0.0426,-0.0441,-0.0531,-0.054,-0.0511,-0.0515,-0.0662,-0.0663,-0.0665,-0.0669,0,0,0,0,0,0,-0.0112,-0.0123,-0.0147,-0.0175,-0.0188,-0.0233,-0.0256,-0.0266,-0.0308,-0.0314,-0.0388,-0.0401,-0.0428,-0.0523,-0.0536,-0.0547,-0.0519,-0.066,-0.0662,-0.0664,-0.0668,-0.0671,-0.0674,0,0,0,0,0,-0.0108,-0.0129,-0.0147,-0.0157,-0.0214,-0.0233,-0.0241,-0.028,-0.0308,-0.0322,-0.0395,-0.04,-0.0544,-0.0529,-0.0543,-0.0556,-0.0659,-0.0662,-0.0664,-0.0667,-0.067,-0.0674,0,0,0,0,0,0,-0.0102,-0.0138,-0.0159,-0.0193,-0.0215,-0.0244,-0.0269,-0.0293,-0.0359,-0.0383,-0.0431,-0.045,-0.0525,-0.0546,-0.0528,-0.0606,-0.0595,-0.06,-0.0592,-0.0596,-0.0599,-0.0579,-0.0524,0,0,0,0,0,-0.0109,-0.0134,-0.0163,-0.0192,-0.0206,-0.0243,-0.0264,-0.0288,-0.034,-0.037,-0.044,-0.05,-0.054,-0.0575,-0.0622,-0.0677,-0.0669,-0.0689,-0.0692,-0.0694,-0.0688,-0.0688,-0.069,-0.0674,-0.0674,-0.0674,0,0,-0.0117,-0.0139,-0.0157,-0.0192,-0.0219,-0.0238,-0.0259,-0.0294,-0.0328,-0.0377,-0.0481,-0.0524,-0.0559,-0.062,-0.0652,-0.0644,-0.0696,-0.0697,-0.0699,-0.0691,-0.0691,-0.0692,-0.0694,-0.0675,-0.0675,-0.0675,0,0,-0.0124,-0.0163,-0.018,-0.0199,-0.0237,-0.0255,-0.0268,-0.0326,-0.0373,-0.0457,-0.0496,-0.0554,-0.0644,-0.0664,-0.0679,-0.0727,-0.0714,-0.0738,-0.0738,-0.0739,-0.074,-0.074,-0.0732,-0.0732,-0.0737,-0.0737,-0.0737,0,-0.0136,-0.016,-0.0187,-0.0204,-0.0226,-0.0262,-0.0282,-0.0326,-0.0417,-0.0457,-0.0496,-0.0616,-0.0656,-0.0688,-0.0706,-0.0731,-0.0727,-0.072,-0.074,-0.0741,-0.0741,-0.0733,-0.0732,-0.0737,-0.0737,-0.0737,-0.0737,0,-0.0143,-0.0173,-0.0185,-0.0219,-0.0244,-0.0267,-0.0316,-0.0374,-0.0442,-0.0485,-0.0573,-0.064,-0.0697,-0.0714,-0.0729,-0.0747,-0.0741,-0.0744,-0.0724,-0.0742,-0.0733,-0.0733,-0.0738,-0.0738,-0.0737,-0.0737,0,0,-0.0148,-0.0182,-0.0192,-0.0207,-0.0257,-0.0272,-0.0334,-0.0384,-0.0424,-0.0526,-0.0579,-0.0656,-0.0692,-0.071,-0.0737,-0.0743,-0.0748,-0.0746,-0.0746,-0.0725,-0.0743,-0.0693,-0.0687,-0.0752,-0.0752,-0.0752,-0.0734,0,-0.0151,-0.0169,-0.0195,-0.0228,-0.0242,-0.0293,-0.0337,-0.0393,-0.0463,-0.0531,-0.0589,-0.0652,-0.0686,-0.0716,-0.073,-0.0745,-0.0747,-0.0752,-0.0739,-0.0738,-0.0681,-0.0685,-0.0753,-0.0734,-0.0734,-0.0733,-0.0733,0,-0.0157,-0.0165,-0.0192,-0.0226,-0.0239,-0.0278,-0.0346,-0.0391,-0.0469,-0.0522,-0.0586,-0.0631,-0.0672,-0.0696,-0.0726,-0.0728,-0.0734,-0.0743,-0.0742,-0.0691,-0.0687,-0.0714,-0.0732,-0.0732,-0.0732,-0.0732,-0.0732,0,-0.0137,-0.0169,-0.019,-0.0205,-0.0248,-0.0294,-0.0333,-0.0408,-0.0437,-0.0524,-0.0542,-0.0609,-0.0637,-0.0667,-0.0681,-0.0711,-0.0685,-0.0729,-0.0688,-0.0685,-0.0732,-0.0732,-0.0734,-0.0734,-0.0734,-0.0734,-0.0734,0,-0.0132,-0.015,-0.0193,-0.0207,-0.0239,-0.029,-0.0341,-0.039,-0.0445,-0.0442,-0.0541,-0.0533,-0.063,-0.0625,-0.0657,-0.0649,-0.0664,-0.068,-0.0674,-0.0736,-0.0736,-0.0731,-0.0731,-0.0733,-0.0733,-0.0733,-0.0734,0,-0.0121,-0.0144,-0.0163,-0.0213,-0.0236,-0.0273,-0.0329,-0.0344,-0.041,-0.0409,-0.0425,-0.0476,-0.0482,-0.0537,-0.0565,-0.0601,-0.0607,-0.0591,-0.0625,-0.0622,-0.0624,-0.0625,-0.0592,-0.059,-0.0588,-0.0587,-0.0585,0,-0.0115,-0.0127,-0.0165,-0.0175,-0.0214,-0.0264,-0.0277,-0.0334,-0.0323,-0.034,-0.0306,-0.0338,-0.0364,-0.0368,-0.0442,-0.0501,-0.051,-0.0529,-0.0622,-0.0611,-0.0609,-0.0612,-0.0615,-0.0583,-0.0582,-0.0582,-0.0581,0,-0.0103,-0.0127,-0.0136,-0.0147,-0.0174,-0.0175,-0.0197,-0.018,-0.02,-0.0237,-0.0196,-0.0244,-0.0244,-0.0317,-0.0349,-0.039,-0.054,-0.0514,-0.052,-0.0607,-0.06,-0.06,-0.0605,-0.0576,-0.0577,-0.0577,-0.0577,0,-0.0098,-0.0098,-0.0106,-0.012,-0.0126,-0.0102,-0.0118,-0.0092,-0.0091,-0.0105,-0.0066,-0.0125,-0.0168,-0.0251,-0.0261,-0.0319,-0.038,-0.0436,-0.0448,-0.0455,-0.0432,-0.0404,-0.0303,0,0,0,0,0,-0.0089,-0.008,-0.0075,-0.0075,-0.0068,-0.0078,-0.0054,-0.0056,-0.0053,-0.0007,-0.0048,-0.0042,-0.0128,-0.0165,-0.0215,-0.0258,-0.0394,-0.0322,-0.0465,-0.0544,-0.055,-0.0543,0,0,0,0,0,0,-0.0081,-0.0073,-0.0062,-0.0032,-0.003,-0.001,-0.0003,0.0004,0.003,0.0017,-0.0015,-0.0066,-0.0135,-0.0095,-0.0219,-0.0239,-0.034,-0.0369,-0.037,-0.054,-0.0546,-0.0551,-0.0546,0,0,0,0,0]}]]